Tracking 19796 objects as of 19-Jul-2019
HD Live streaming from Space Station
objects crossing your sky now

NOAA 16 DEB

Track NOAA 16 DEB now!
10-day predictions


NORAD ID: 41370
Int'l Code: 2000-055JP
Perigee: 721.8 km
Apogee: 851.0 km
Inclination: 98.9 °
Period: 100.4 minutes
Semi major axis: 7157 km
RCS: Unknown
Launch date: September 21, 2000
Source: United States (US)
Launch site: AIR FORCE WESTERN TEST RANGE (AFWTR)

Note: This is SATELLITE DEBRIS
aabbcc
Your satellite tracking list
Your tracking list is empty




NASA's NSSDC Master Catalog

Two Line Element Set (TLE):
1 41370U 00055JP  19199.26313959  .00001154  00000-0  41300-3 0  9994
2 41370  98.8954 318.2517 0090257 190.6170 169.3110 14.33751947189636
Source of the keplerian elements: AFSPC